"Pseudo-MPEC" for P11dbFG

Created 2021 Mar 4 15:07:09 UT using Find_Orb

Click here for an explanation of pseudo-MPECs

 
 Astrometry: 
     P11dbFG  C2021 02 12tu$!%!R_,d)7y^aDj+SxLBYjq2%R-!VbZ1n?=3Astrometry.2VGF51
     P11dbFG  C2021 02 12NU7redacted;Y.k14gjYGbkMnR(J;b5c[,v8;cnb7ISJ1E[F2%YZF51
     P11dbFG  C2021 02 12AJa5#i9r+N[f[2XPuMlfPE6jqWPu7ryRclick-AGNOheredl0P%:F51
     P11dbFG  C2021 02 12K,,k6R'RvRnS(CDTCvbyqcNw8lD#BI=GUfor$8kVsexplanationF51

Station data:
(F51) Pan-STARRS 1, Haleakala  (N20.707235 W156.255910)  US/Hawaii.
   Observers N. Primak, A. Schultz, S. Watters, J. Thiel, T. Goggia. Measurer
   PS1 Science Consortium. 1.8-m Ritchey-Chrétien + CCD.

Orbital elements:  P11dbFG
   Perihelion 2021 Oct 23.914349 +/- 98.617 TT = 21:56:39 (JD 2459511.414349)
Epoch 2021 Feb 12.0 TT = JDT 2459257.5   Earth MOID: 0.2914   Ma: 0.0397
M 221.60713485 +/- 129.24899        (J2000 ecliptic)          AutoNEOCP
n   0.54503759 +/- 0.479518         Peri.  307.03997 +/- 87.381493
a   1.48428880 +/- 0.870558         Node   320.34234 +/- 80.868261
e   0.1659754 +/- 0.2681            Incl.   36.96801 +/- 25.017768
P   1.81/660.49d           H 20.2   G  0.15   U 12.2  SR
q 1.23793334 +/- 0.66909    Q 1.73064426 +/- 22.8085
From 4 observations 2021 Feb. 12 (55.2 min); mean residual 0".04
Residuals in arcseconds: 
210212 F51  .01-  .07+    210212 F51  .00   .03-    
210212 F51  .02+  .09-    210212 F51  .01-  .05+    

Ephemerides (geocentric):
Date (UTC) HH   RA              Dec         delta   r     elong  mag " sig PA
---- -- -- --  -------------   -----------  ------ ------ -----  --- ---- ---
2021 03 04 15  06 25 07.347   +36 26 26.11  1.0213 1.6554 110.6 22.8  18d  46
2021 03 04 16  06 25 08.124   +36 25 04.94  1.0216 1.6553 110.6 22.8  18d  46
2021 03 04 17  06 25 08.906   +36 23 43.82  1.0220 1.6553 110.6 22.8  18d  46
2021 03 04 18  06 25 09.693   +36 22 22.73  1.0223 1.6552 110.5 22.8  18d  46
2021 03 04 19  06 25 10.486   +36 21 01.69  1.0226 1.6552 110.5 22.8  18d  46
2021 03 04 20  06 25 11.284   +36 19 40.69  1.0230 1.6551 110.5 22.8  18d  46
2021 03 04 21  06 25 12.087   +36 18 19.74  1.0233 1.6550 110.4 22.8  18d  46
2021 03 04 22  06 25 12.896   +36 16 58.82  1.0236 1.6550 110.4 22.8  18d  46
2021 03 04 23  06 25 13.710   +36 15 37.95  1.0240 1.6549 110.4 22.8  18d  46
2021 03 05 00  06 25 14.529   +36 14 17.12  1.0243 1.6548 110.3 22.8  18d  46
2021 03 05 01  06 25 15.354   +36 12 56.34  1.0247 1.6548 110.3 22.8  18d  46
2021 03 05 02  06 25 16.184   +36 11 35.59  1.0250 1.6547 110.3 22.8  18d  46
2021 03 05 03  06 25 17.019   +36 10 14.89  1.0253 1.6546 110.2 22.8  18d  46
2021 03 05 04  06 25 17.860   +36 08 54.24  1.0257 1.6546 110.2 22.8  18d  46
2021 03 05 05  06 25 18.705   +36 07 33.62  1.0260 1.6545 110.1 22.8  18d  46
2021 03 05 06  06 25 19.557   +36 06 13.05  1.0263 1.6545 110.1 22.8  18d  46
2021 03 05 07  06 25 20.413   +36 04 52.52  1.0267 1.6544 110.1 22.8  18d  46
2021 03 05 08  06 25 21.274   +36 03 32.03  1.0270 1.6543 110.0 22.8  19d  46
2021 03 05 09  06 25 22.141   +36 02 11.59  1.0274 1.6543 110.0 22.8  19d  46
2021 03 05 10  06 25 23.013   +36 00 51.19  1.0277 1.6542 110.0 22.8  19d  46
2021 03 05 11  06 25 23.890   +35 59 30.83  1.0280 1.6541 109.9 22.8  19d  46
2021 03 05 12  06 25 24.773   +35 58 10.51  1.0284 1.6541 109.9 22.8  19d  46
2021 03 05 13  06 25 25.660   +35 56 50.24  1.0287 1.6540 109.9 22.8  19d  46
2021 03 05 14  06 25 26.553   +35 55 30.00  1.0290 1.6540 109.8 22.8  19d  46
2021 03 05 15  06 25 27.451   +35 54 09.82  1.0294 1.6539 109.8 22.8  19d  46
2021 03 05 16  06 25 28.354   +35 52 49.67  1.0297 1.6538 109.8 22.8  19d  46
2021 03 05 17  06 25 29.263   +35 51 29.57  1.0301 1.6538 109.7 22.8  19d  46
2021 03 05 18  06 25 30.176   +35 50 09.51  1.0304 1.6537 109.7 22.8  19d  46
2021 03 05 19  06 25 31.095   +35 48 49.49  1.0307 1.6536 109.7 22.8  19d  46
2021 03 05 20  06 25 32.019   +35 47 29.51  1.0311 1.6536 109.6 22.8  19d  46
2021 03 05 21  06 25 32.948   +35 46 09.58  1.0314 1.6535 109.6 22.8  19d  46
2021 03 05 22  06 25 33.882   +35 44 49.69  1.0318 1.6534 109.6 22.8  19d  46
2021 03 05 23  06 25 34.821   +35 43 29.85  1.0321 1.6534 109.5 22.8  19d  46
2021 03 06 00  06 25 35.766   +35 42 10.04  1.0325 1.6533 109.5 22.8  19d  46
2021 03 06 01  06 25 36.715   +35 40 50.28  1.0328 1.6533 109.5 22.8  19d  47
2021 03 06 02  06 25 37.670   +35 39 30.56  1.0331 1.6532 109.4 22.8  19d  47
2021 03 06 03  06 25 38.629   +35 38 10.88  1.0335 1.6531 109.4 22.8  19d  47
2021 03 06 04  06 25 39.594   +35 36 51.25  1.0338 1.6531 109.3 22.8  19d  47
2021 03 06 05  06 25 40.564   +35 35 31.66  1.0342 1.6530 109.3 22.8  19d  47
2021 03 06 06  06 25 41.539   +35 34 12.11  1.0345 1.6529 109.3 22.8  19d  47
2021 03 06 07  06 25 42.519   +35 32 52.61  1.0348 1.6529 109.2 22.8  19d  47
2021 03 06 08  06 25 43.504   +35 31 33.14  1.0352 1.6528 109.2 22.8  19d  47
2021 03 06 09  06 25 44.494   +35 30 13.72  1.0355 1.6527 109.2 22.8  19d  47
2021 03 06 10  06 25 45.489   +35 28 54.35  1.0359 1.6527 109.1 22.8  19d  47
2021 03 06 11  06 25 46.489   +35 27 35.01  1.0362 1.6526 109.1 22.8  19d  47
2021 03 06 12  06 25 47.494   +35 26 15.72  1.0366 1.6525 109.1 22.8  19d  47
2021 03 06 13  06 25 48.504   +35 24 56.47  1.0369 1.6525 109.0 22.8  19d  47
2021 03 06 14  06 25 49.519   +35 23 37.26  1.0372 1.6524 109.0 22.8  19d  47